EW0036 Weather Reports


time (UTC)temp
C
wind
direction
speed
KPH
gust
KPH
rain 1hr
cm
rain 24hr
cm
rain mn
cm
humidity
%
barometer
mb
20260503225716 11 236 1.6 1.6 0.00 0.03 0.00 65 1013.9
20260503224707 12 249 0.0 3.2 0.00 0.03 0.00 64 1014.2
20260503223657 12 150 0.0 3.2 0.00 0.03 0.00 64 1014.2
20260503222656 12 185 0.0 3.2 0.00 0.03 0.00 64 1014.2
20260503221654 12 245 0.0 1.6 0.00 0.03 0.00 63 1014.2
20260503220653 12 231 0.0 1.6 0.00 0.03 0.00 63 1014.2
20260503215651 12 188 0.0 3.2 0.00 0.03 0.00 63 1014.2
20260503214650 12 188 0.0 3.2 0.00 0.03 0.00 62 1014.2
20260503213649 12 166 0.0 1.6 0.00 0.03 0.00 62 1014.2
20260503212648 13 249 0.0 1.6 0.00 0.03 0.00 62 1014.2
20260503211647 13 232 0.0 1.6 0.00 0.03 0.00 62 1014.2
20260503210646 13 251 1.6 6.4 0.00 0.03 0.00 62 1014.2
20260503205645 13 191 0.0 6.4 0.00 0.03 0.03 61 1014.2
20260503204639 13 180 0.0 4.8 0.00 0.03 0.03 61 1014.2
20260503203638 13 204 1.6 4.8 0.00 0.03 0.03 61 1014.2
20260503202636 13 180 1.6 3.2 0.00 0.03 0.03 61 1014.2
20260503201532 13 179 0.0 1.6 0.00 0.03 0.03 62 1014.2
20260503200531 14 139 1.6 3.2 0.00 0.03 0.03 61 1014.2
20260503195530 14 225 0.0 4.8 0.00 0.03 0.03 61 1014.2
20260503194457 14 215 1.6 3.2 0.00 0.03 0.03 60 1014.2
20260503193425 14 216 0.0 1.6 0.00 0.03 0.03 60 1014.2
20260503192425 14 200 0.0 1.6 0.00 0.03 0.03 60 1014.2
20260503191424 15 200 0.0 1.6 0.00 0.03 0.03 59 1014.2
20260503190423 15 199 0.0 1.6 0.00 0.03 0.03 58 1014.2
20260503185422 15 198 0.0 1.6 0.00 0.03 0.03 57 1014.2
20260503184421 15 183 0.0 1.6 0.00 0.03 0.03 57 1013.9
20260503183421 16 182 0.0 1.6 0.00 0.03 0.03 55 1013.9
20260503182420 16 233 0.0 1.6 0.00 0.03 0.03 55 1013.9
20260503181419 16 195 0.0 3.2 0.00 0.03 0.03 54 1013.9
20260503180418 17 198 0.0 3.2 0.00 0.03 0.03 52 1013.9
20260503175417 17 172 0.0 4.8 0.00 0.03 0.03 51 1013.9
20260503174345 17 158 0.0 4.8 0.00 0.03 0.03 51 1013.9
20260503173344 18 163 0.0 1.6 0.00 0.03 0.03 50 1013.5
20260503172343 18 212 1.6 4.8 0.00 0.03 0.03 49 1013.5
20260503171342 18 264 0.0 4.8 0.00 0.03 0.03 48 1013.5
20260503170341 19 208 0.0 1.6 0.00 0.03 0.03 48 1013.5
20260503150122 25 74 0.0 3.2 0.00 0.03 0.03 35 1013.5
20260503130952 25 314 3.2 8.0 0.00 0.03 0.03 35 1014.9
20260503081547 19 239 3.2 8.0 0.00 0.03 0.03 41 1018.6
20260503080546 19 116 1.6 8.0 0.00 0.03 0.03 41 1018.6
20260503072542 17 175 3.2 11.3 0.00 0.03 0.03 43 1019.0
20260503071510 17 127 3.2 16.1 0.00 0.03 0.03 43 1019.0
20260503070509 17 136 1.6 16.1 0.00 0.03 0.03 45 1019.0
20260503054430 11 181 1.6 4.8 0.00 0.03 0.03 67 1019.6
20260503053429 10 120 1.6 4.8 0.00 0.03 0.03 71 1019.6
20260503052428 9 207 1.6 3.2 0.00 0.03 0.03 72 1019.6
20260503051358 8 127 0.0 3.2 0.00 0.03 0.03 75 1019.6
20260503050356 8 185 1.6 3.2 0.00 0.03 0.03 79 1020.0
20260503045324 8 124 1.6 1.6 0.00 0.03 0.03 81 1020.0
20260503044322 7 238 0.0 1.6 0.00 0.03 0.03 79 1020.0
20260503043218 7 202 0.0 0.0 0.00 0.03 0.03 81 1020.3
20260503042146 7 201 0.0 1.6 0.00 0.03 0.03 80 1020.3
20260503041145 7 211 0.0 1.6 0.00 0.03 0.03 78 1020.0
20260503040144 6 211 1.6 1.6 0.03 0.03 0.03 78 1020.0
20260503035143 6 167 1.6 1.6 0.03 0.03 0.03 81 1020.0
20260503034142 6 219 1.6 3.2 0.03 0.03 0.03 82 1020.0
20260503033141 6 230 1.6 1.6 0.03 0.03 0.03 81 1020.0
20260503032140 7 156 0.0 3.2 0.03 0.03 0.03 79 1020.0
20260503031139 7 203 1.6 3.2 0.03 0.03 0.03 75 1020.0
20260503030138 8 205 0.0 3.2 0.00 0.00 0.00 68 1020.0
20260503025137 9 163 0.0 3.2 0.00 0.00 0.00 59 1020.0
20260503024136 10 94 0.0 3.2 0.00 0.00 0.00 51 1020.3
20260503023134 10 29 0.0 3.2 0.00 0.00 0.00 50 1020.0
20260503022133 10 283 0.0 3.2 0.00 0.00 0.00 49 1020.0
20260503021132 10 179 0.0 3.2 0.00 0.00 0.00 49 1020.0
20260503020131 9 139 1.6 1.6 0.00 0.00 0.00 49 1019.6
20260503015130 9 225 0.0 3.2 0.00 0.00 0.00 49 1020.0
20260503014129 9 195 1.6 3.2 0.00 0.00 0.00 50 1020.0
20260503013057 9 155 0.0 1.6 0.00 0.00 0.00 49 1020.3
20260503011953 9 155 0.0 1.6 0.00 0.00 0.00 47 1020.3
20260503010953 9 154 1.6 4.8 0.00 0.00 0.00 46 1020.0
20260503005952 9 207 1.6 4.8 0.00 0.00 0.00 47 1020.3
20260503004951 9 210 1.6 1.6 0.00 0.00 0.00 46 1020.3
20260503003949 9 198 1.6 1.6 0.00 0.00 0.00 47 1020.3
20260503002917 9 158 0.0 1.6 0.00 0.00 0.00 47 1020.3
20260503001916 9 57 1.6 1.6 0.00 0.00 0.00 46 1020.3
20260503000915 9 153 0.0 3.2 0.00 0.00 0.00 46 1020.7
20260502235914 9 225 1.6 3.2 0.00 0.00 0.00 46 1020.7
20260502234913 9 240 0.0 3.2 0.00 0.00 0.00 45 1020.7
20260502233841 9 211 1.6 4.8 0.00 0.00 0.00 44 1021.0
20260502232809 9 254 1.6 4.8 0.00 0.00 0.00 44 1020.7
20260502231737 9 140 1.6 3.2 0.00 0.00 0.00 45 1020.7
20260502230736 9 162 1.6 4.8 0.00 0.00 0.00 45 1020.7